Location: Newark
(33.9035°S, 18.4112°E)
Time: 17:04:18
(UTC+00:00)

STARLINK-1110 - Pass Details

Date: 22 January 2020
Orbit: 348 x 351 km, 53.0° (Epoch: 18 February)

Event Time Altitude Azimuth Distance (km) Brightness Sun altitude
Exits shadow 01:50:52 30° 95° (E) 669 4.5 -22.3°
Drops below altitude 10° 01:52:46 10° 121° (ESE) 1,336 6.7 -22.0°
Enters shadow 02:46:05 -73° 316° (NW) 12,566 10.5 -13.6°
